{"data":{"norad_id":59034,"epoch":"2026-05-24T20:05:19.809312Z","epoch_age_seconds":86351,"freshness":"FRESH","line1":"1 59034U 24038M   26144.83703483 -.00000459  00000+0 -71686-5 0  9993","line2":"2 59034  43.0017 313.5553 0000838 287.1624  72.9136 15.27570544126335","mean_motion":15.27570544,"eccentricity":8.38e-5,"inclination_deg":43.0017,"raan_deg":313.5553,"arg_perigee_deg":287.1624,"mean_anomaly_deg":72.9136,"bstar":-7.1686e-6,"rev_number":12633,"period_min":94.267332245705,"perigee_km":482.50244108386,"apogee_km":483.65238061912,"semimajor_km":6861.2144108515,"source":"CELESTRAK","updated_at":"2026-05-25T13:38:18.824372Z"}}